Dewpoint
71 70 71 71 71 70 70 71 71 72 72 73 73 73 72 73 72 73 73 73 73 73 74 74 74 74 74 75 74 75 75 75 75 75 75 75 75 76 75 75 75 75 75 75 74 75 76 75 76 76 75 75 75 75 74 74 74 74 74 74 73 73 73 72 71 71 72 72 72 73 73 74 73 75 74 73 74 75 75 76 76 75 75 75 75
71 71 72 71 71 71 71 71 71 71 71 72 73 73 73 73 73 73 72 73 73 73 73 73 74 74 74 74 75 74 75 75 74 75 75 75 75 75 75 75 75 75 74 74 74 74 75 75 75 74 75 74 75 74 74 73 72 72 73 72 73 73 74 73 72 71 70 73 72 73 73 75 74 75 73 72 73 75 74 75 74 75 75 75 75
72 72 72 72 72 72 72 72 72 72 71 71 71 72 72 73 73 72 72 72 73 73 73 73 74 74 74 74 75 74 75 75 75 75 75 75 75 75 75 75 75 74 74 74 74 74 74 74 74 74 73 74 74 74 73 73 73 73 73 72 72 72 73 74 72 71 70 71 72 71 74 75 73 72 74 73 75 75 75 74 73 73 73 73 73
72 72 72 72 73 73 72 72 72 72 72 71 71 71 71 72 73 72 72 72 71 72 72 72 73 74 73 74 74 74 74 74 75 75 75 75 75 75 75 75 75 75 74 74 74 74 74 74 73 74 74 74 74 74 74 73 73 74 73 73 73 73 73 73 73 72 72 70 73 72 74 73 73 74 74 75 74 74 74 75 75 73 72 71 71
71 72 73 73 73 72 72 72 72 72 72 73 72 71 70 70 71 71 71 71 71 71 72 72 73 73 72 73 74 74 74 74 74 74 74 75 75 74 75 75 75 75 75 74 75 74 74 74 74 74 74 74 73 73 73 73 73 73 73 73 73 73 73 73 73 73 72 71 72 73 72 73 74 74 74 74 74 75 75 75 73 73 74 70 69
71 71 72 73 72 72 72 72 72 72 72 72 72 71 70 69 69 70 70 71 71 71 71 71 72 72 73 73 73 74 74 74 74 74 73 74 74 74 74 74 74 74 74 74 74 74 74 74 74 74 74 73 73 73 73 73 72 72 72 73 73 72 72 72 73 73 73 72 72 72 73 72 73 73 74 75 73 73 73 73 73 73 73 70 69
71 71 71 72 72 72 72 72 71 71 72 73 73 73 72 71 70 69 70 70 69 69 70 71 72 72 72 73 72 73 73 73 74 74 74 74 74 74 73 74 74 74 73 73 73 73 73 73 74 74 74 74 73 73 73 73 72 73 73 73 73 72 72 72 72 72 72 72 72 72 72 73 72 71 74 73 73 73 72 72 70 70 73 72 71
71 71 71 71 71 71 71 71 71 70 71 71 72 73 73 72 72 71 71 70 70 70 69 69 70 71 71 72 73 73 73 73 73 74 73 73 73 73 73 73 73 73 73 73 73 72 73 73 72 73 74 74 74 74 74 73 74 73 73 73 73 72 72 72 72 71 71 70 70 70 71 71 71 72 72 72 72 72 73 72 70 69 70 73 72
71 70 70 70 70 70 70 70 70 70 70 70 71 71 72 73 72 72 72 71 70 71 71 70 70 70 70 71 72 72 71 72 72 72 73 73 73 72 72 72 72 73 73 72 72 73 72 72 72 72 74 75 75 75 74 74 73 73 73 73 73 72 72 72 72 72 71 70 70 71 70 70 70 71 70 70 70 69 72 71 72 72 71 71 70
70 69 69 70 71 71 71 71 71 71 71 70 71 71 71 72 72 72 72 72 72 73 72 73 71 70 70 70 70 70 71 71 72 70 70 72 73 72 72 73 73 73 73 73 72 72 71 71 71 74 75 76 76 75 73 74 75 73 73 73 73 73 72 72 71 71 71 70 69 69 69 69 68 69 70 70 71 72 71 72 70 71 71 71 71
70 70 70 70 71 71 71 71 71 71 71 71 71 71 72 72 72 72 73 73 73 73 73 73 72 71 69 69 69 68 69 69 69 66 66 67 72 73 72 73 73 73 72 73 73 72 72 72 72 72 74 75 76 75 75 73 73 73 73 74 74 73 72 72 71 71 71 70 70 70 69 69 69 70 70 69 70 70 70 71 70 71 70 69 66
69 69 70 70 70 70 70 70 70 71 71 70 71 71 72 72 72 72 73 73 73 73 73 72 72 72 72 70 68 68 69 69 65 64 65 65 68 73 72 72 72 72 72 72 72 72 71 71 71 70 71 72 72 73 73 72 70 71 71 71 72 73 73 73 72 72 72 70 70 70 69 70 69 70 69 69 70 71 71 71 71 70 70 69 69
67 67 68 69 69 69 69 69 70 70 70 70 71 71 71 71 71 72 73 73 73 73 73 73 73 73 72 72 72 71 70 68 65 64 63 63 63 69 72 73 72 71 72 72 72 72 72 72 71 71 69 73 74 73 74 74 71 69 69 69 70 70 67 67 70 73 72 72 70 70 70 70 70 70 70 72 73 71 70 70 70 70 70 69 68
63 63 64 65 67 68 69 69 69 69 69 70 70 69 69 68 68 70 69 70 70 71 72 72 72 73 73 73 73 73 72 68 64 62 62 62 62 64 70 72 72 72 72 72 71 72 72 72 72 71 71 72 73 72 72 73 73 72 72 72 71 71 70 68 67 67 70 71 72 70 70 72 70 70 71 72 71 70 70 69 70 69 69 69 70
59 57 59 60 63 65 65 66 66 67 68 68 67 67 67 67 68 69 68 68 68 68 69 70 70 70 71 71 71 71 69 65 64 63 61 59 60 62 68 70 71 71 72 72 73 72 72 72 72 71 72 73 73 72 72 72 72 71 71 70 70 70 70 68 68 69 70 69 71 71 71 72 71 72 72 72 72 72 71 71 71 70 70 70 70
57 59 57 58 60 61 61 61 61 61 62 63 64 65 66 67 67 69 69 69 69 70 68 68 68 67 69 69 69 69 69 64 62 62 61 60 61 67 68 69 69 69 70 70 71 72 72 72 73 73 73 73 72 69 71 73 72 71 71 70 70 70 69 70 65 66 69 70 70 69 69 69 67 71 71 70 72 73 70 69 69 70 69 68 67
57 57 58 58 60 60 60 59 60 60 60 60 60 62 63 65 68 69 69 69 69 69 67 68 68 67 67 68 69 70 70 67 61 60 59 60 65 69 68 68 68 68 68 69 69 70 70 71 72 71 71 72 70 65 65 69 70 70 70 70 69 69 69 69 66 63 62 61 62 63 63 63 62 61 61 61 67 67 68 67 68 66 68 67 67
56 57 57 58 59 59 60 59 58 59 59 59 60 61 61 63 64 67 68 68 68 68 68 69 70 69 67 67 68 70 70 69 61 59 59 59 64 68 69 69 68 69 69 69 70 70 70 70 71 72 72 73 67 64 62 68 70 70 69 69 68 68 69 68 67 67 64 62 60 60 61 61 61 61 61 61 61 65 68 68 67 67 67 67 66
55 56 56 57 57 58 58 59 58 58 59 59 60 61 61 61 61 64 66 67 68 69 69 69 70 70 68 66 66 70 71 69 64 61 60 59 64 68 69 69 69 69 69 69 69 70 70 70 70 70 69 68 59 58 58 64 67 68 69 68 68 68 68 68 68 68 69 69 70 70 69 67 69 69 70 66 65 69 68 68 67 67 67 67 67
56 56 56 56 57 58 58 59 59 59 59 59 59 60 61 60 61 61 62 63 65 67 69 69 69 70 70 70 70 70 71 71 70 63 60 59 58 66 69 69 69 69 70 70 70 70 71 71 71 66 60 55 54 53 54 56 64 67 67 67 68 68 69 68 69 68 69 69 70 70 71 71 71 71 71 71 70 71 70 69 68 68 68 68 68
56 56 56 55 56 57 57 57 58 58 59 58 59 59 60 60 60 60 59 59 60 61 63 66 67 67 69 69 69 67 69 69 68 59 57 56 56 60 68 69 69 69 70 70 70 69 70 70 70 66 56 55 54 53 53 53 57 65 67 68 69 69 68 67 67 69 68 69 69 69 69 70 70 70 70 71 70 70 70 69 69 68 68 67 68
55 54 55 55 56 56 56 57 57 57 58 57 57 57 58 59 59 57 57 58 58 59 60 59 58 58 60 62 62 62 63 62 61 58 56 54 54 57 66 68 66 68 69 69 69 69 69 69 69 67 58 56 54 52 51 52 54 62 66 60 59 60 65 67 67 67 67 68 68 68 68 69 69 70 70 70 70 71 70 70 70 69 69 69 70
53 54 54 55 56 56 56 55 55 56 57 57 55 56 56 57 57 58 58 57 58 57 58 57 56 56 57 56 56 59 62 62 63 62 59 53 53 54 54 60 58 66 67 68 68 68 68 67 67 67 56 52 50 51 52 52 57 62 57 55 56 57 61 64 66 67 67 67 68 68 69 69 69 69 70 70 70 71 70 71 71 71 71 71 71
52 53 54 54 54 56 55 54 54 54 55 55 56 55 55 56 57 56 56 57 57 57 58 58 57 56 55 55 55 58 60 62 62 61 61 55 53 52 52 53 56 62 65 66 67 66 66 66 65 54 50 48 49 52 52 54 59 54 53 54 56 58 62 65 65 67 67 67 67 68 68 69 69 69 69 71 70 72 72 71 72 72 73 72 72
53 52 52 53 54 54 55 53 53 53 53 54 54 54 55 55 55 56 56 56 56 56 57 56 56 56 55 54 55 57 59 60 58 60 60 58 54 52 52 53 55 56 63 62 64 64 59 53 51 51 53 52 53 54 57 59 58 57 56 56 61 64 65 65 66 67 67 67 67 68 68 69 69 70 71 71 72 72 72 71 71 72 72 73 73
53 53 53 54 53 54 54 52 52 53 53 54 55 55 54 54 55 55 54 54 56 56 55 55 55 55 54 55 56 57 58 58 58 57 58 58 57 55 54 55 58 59 60 61 59 57 55 55 55 56 58 60 64 65 66 67 62 60 60 62 66 66 66 67 68 68 68 67 67 68 68 69 69 71 72 72 71 71 71 71 71 70 71 71 71
53 52 52 53 54 54 55 54 52 53 53 52 52 53 54 53 53 54 54 53 54 54 53 54 54 53 54 54 55 56 56 57 57 58 58 57 56 56 55 57 56 56 56 56 56 57 59 60 60 57 56 57 58 59 60 63 66 67 67 68 69 69 69 68 68 68 68 68 68 68 69 69 70 70 70 71 70 71 71 70 69 69 70 70 70
51 50 50 51 54 54 53 54 53 52 52 52 51 51 52 51 52 52 52 53 53 52 52 52 53 53 53 53 54 54 54 55 56 56 56 55 54 54 53 55 54 54 53 54 56 57 58 59 59 64 64 65 64 64 64 66 65 65 66 67 70 70 69 69 68 69 69 69 68 68 68 69 69 69 69 69 69 70 71 70 69 70 69 70 69
52 50 50 50 52 53 53 53 53 52 52 52 52 53 53 51 52 52 52 55 54 51 51 51 53 52 51 52 53 53 54 54 55 53 56 49 51 51 52 52 52 53 54 51 54 57 58 59 61 61 61 61 62 62 62 63 63 64 64 65 65 66 69 68 68 68 68 68 68 68 68 68 68 69 68 68 69 69 71 70 71 70 70 70 68
50 50 52 51 54 53 52 51 52 52 51 50 51 51 52 50 51 52 51 54 52 48 47 51 51 50 50 51 53 52 52 53 51 46 43 42 42 43 44 43 43 48 49 48 52 55 57 58 58 57 58 59 60 61 61 61 62 63 63 62 64 64 65 66 66 67 68 68 68 68 68 68 68 68 68 68 68 69 69 67 69 70 69 68 68
51 50 52 52 54 52 52 51 52 52 51 51 51 51 51 52 47 46 48 51 48 44 43 43 44 46 54 51 53 51 50 48 45 44 43 42 41 41 41 42 42 42 43 50 55 56 56 56 56 57 58 59 59 60 61 61 62 62 63 63 64 65 65 65 66 66 66 66 67 67 67 67 67 68 68 68 68 68 69 69 69 70 69 68 68
50 50 50 52 53 51 52 51 51 51 51 51 51 51 51 51 52 48 46 46 46 44 43 42 42 43 44 48 50 53 50 46 44 43 42 42 42 41 41 42 42 43 43 45 54 56 56 56 57 57 58 58 58 59 60 60 62 62 63 63 64 65 65 65 66 66 66 67 67 67 67 67 67 67 68 67 67 67 68 68 68 68 68 68 68
49 49 50 52 51 51 50 51 50 51 50 50 50 51 51 51 49 50 53 46 46 45 44 43 42 42 42 42 43 43 44 43 43 42 42 42 41 41 42 43 43 43 43 52 56 56 56 57 56 57 57 57 58 58 59 61 62 63 63 64 64 65 66 67 65 67 65 66 66 66 66 67 67 67 66 67 68 68 68 68 68 68 68 68 68
49 51 52 50 50 50 49 49 49 50 50 50 50 51 51 51 50 50 49 50 52 49 46 45 45 44 45 45 44 44 43 43 43 42 42 42 42 42 41 48 45 41 48 55 56 56 56 56 57 57 58 58 59 59 60 61 62 63 64 64 65 66 67 67 65 64 65 66 65 64 64 64 64 65 65 65 66 67 67 67 68 68 68 68 68
48 50 49 50 51 49 49 49 49 49 49 50 50 50 51 51 50 49 48 48 49 49 50 53 51 48 51 48 46 44 42 42 43 43 43 43 43 42 45 55 54 55 53 55 56 56 56 57 57 57 58 58 59 60 61 62 62 63 64 65 65 65 64 64 63 64 64 64 64 64 63 63 63 63 63 63 63 64 64 65 66 67 67 68 68
48 48 48 49 49 49 49 49 49 49 49 50 51 49 49 49 49 49 49 50 50 50 51 52 52 50 48 46 45 44 44 44 44 44 44 43 43 43 53 53 53 53 54 55 55 55 56 56 57 58 59 59 60 61 62 62 63 64 65 65 64 63 63 63 62 62 63 63 63 63 61 62 61 61 61 61 61 61 62 63 64 65 66 67 68
47 48 48 48 49 49 49 49 49 49 49 48 49 49 49 49 49 49 49 49 49 49 48 49 50 50 51 51 50 46 46 45 44 44 44 44 44 51 53 53 53 53 54 54 54 55 55 56 57 58 58 58 59 61 63 64 65 64 62 63 63 62 62 62 61 62 63 62 62 62 61 60 59 60 59 59 60 60 61 62 63 64 65 65 64
48 48 48 49 49 49 48 49 49 48 48 48 50 50 49 49 49 48 47 47 47 47 47 48 48 48 48 49 51 49 48 46 45 44 45 45 49 51 52 52 53 52 52 53 54 55 55 56 57 58 58 59 60 61 62 63 63 62 62 62 62 62 60 61 61 61 61 61 60 60 59 58 58 58 59 59 59 60 61 62 64 65 65 64 65
48 48 47 47 46 48 48 48 47 47 47 48 48 49 49 48 47 46 46 46 47 47 47 47 47 48 48 47 47 48 48 47 47 47 48 49 50 51 51 51 51 52 52 53 53 54 55 56 57 58 58 59 60 61 62 62 61 60 60 60 60 60 60 59 59 60 59 59 59 58 58 58 58 58 58 59 60 61 62 62 63 63 63 63 63
47 46 47 47 47 47 47 47 47 46 47 47 47 46 46 45 46 46 46 46 46 46 46 46 46 46 45 47 47 47 46 46 47 47 47 48 48 49 50 50 51 51 52 52 53 53 54 55 57 57 58 60 61 61 60 59 58 58 58 58 57 57 58 58 58 58 57 57 58 57 57 57 57 57 58 58 58 59 59 59 59 60 61 62 63
45 46 47 46 46 45 46 46 46 46 46 45 45 45 45 45 45 46 45 45 45 45 44 44 44 46 47 48 46 45 48 47 47 47 47 48 48 49 49 50 50 51 51 52 53 54 55 56 57 58 58 60 60 59 58 57 56 56 56 56 56 56 55 56 56 56 56 56 57 57 56 56 56 57 57 57 57 58 59 59 60 61 61 61 62
45 46 47 45 45 44 43 43 43 43 43 44 44 45 45 45 45 44 44 44 44 44 44 44 45 46 46 45 43 42 47 47 47 47 48 48 48 48 49 49 50 51 51 52 53 54 54 55 55 56 56 57 58 57 57 56 55 54 54 54 54 54 54 54 55 55 55 55 55 55 55 55 55 56 56 54 57 58 59 59 59 59 59 60 60
48 45 45 45 44 44 43 42 43 42 42 43 43 44 44 44 43 44 44 44 44 45 45 45 45 46 46 46 46 45 46 46 48 47 47 47 48 49 49 49 50 51 51 52 53 54 54 54 54 56 57 58 57 56 55 54 54 53 53 52 52 52 52 52 53 53 54 54 54 54 54 54 54 55 55 54 55 55 56 56 57 58 59 59 60
46 44 44 44 43 43 44 43 43 43 42 43 44 44 43 44 44 45 44 44 44 44 43 43 44 45 46 45 45 46 46 46 47 47 48 49 49 49 50 50 51 52 52 53 53 54 54 53 53 54 55 55 55 55 54 53 53 52 51 51 50 50 50 51 51 52 51 52 51 52 51 52 52 52 52 52 53 53 54 55 55 56 57 58 58
43 42 42 42 42 42 43 44 43 42 43 43 42 43 45 44 43 43 43 42 43 43 43 43 43 44 44 44 44 44 45 45 47 47 47 48 49 49 50 51 52 53 53 54 55 55 55 54 54 54 54 53 52 52 51 51 51 51 50 49 49 49 49 49 49 50 50 50 49 49 49 50 50 50 50 51 52 52 53 53 54 54 56 56 57
40 40 42 41 42 42 43 43 43 41 42 43 43 42 42 42 42 42 42 42 42 41 41 41 41 42 43 42 42 43 43 44 45 46 47 47 47 48 49 49 49 49 49 49 49 49 49 50 50 50 50 50 50 50 50 50 50 50 50 49 49 48 48 48 49 49 49 49 48 48 48 48 48 49 51 50 50 52 52 52 53 53 53 54 54
40 41 41 42 42 43 42 42 41 42 43 42 42 41 41 40 40 41 41 41 40 41 41 40 40 40 40 40 40 41 42 43 43 45 46 46 47 48 48 48 48 48 48 48 49 48 48 49 48 48 48 48 48 49 49 49 49 49 49 49 49 48 48 48 48 48 48 48 48 47 47 47 47 47 48 48 48 48 49 49 50 50 51 52 52
41 41 41 41 40 40 41 41 42 43 41 40 40 40 40 40 39 39 39 39 40 40 40 40 39 38 40 40 40 40 41 42 44 45 46 47 47 48 48 48 48 48 48 48 48 48 48 48 48 48 48 48 48 47 47 47 47 47 48 48 48 48 47 47 47 47 47 47 46 46 46 45 45 45 45 45 46 46 47 47 48 49 49 50 51
41 41 39 39 39 40 40 40 41 38 38 37 38 37 37 37 38 38 38 39 39 39 38 38 38 39 40 40 41 42 43 44 43 44 45 46 47 47 48 48 48 47 47 47 47 47 47 47 47 48 47 47 47 46 46 46 46 46 46 46 45 45 43 42 43 44 43 44 43 43 44 44 44 44 45 45 45 45 45 46 47 48 48 49 50
41 40 40 38 39 39 40 40 38 37 38 37 37 37 37 38 38 39 39 38 38 38 38 38 39 39 40 41 43 43 43 44 44 45 47 47 47 48 47 47 47 47 47 47 47 47 47 46 46 46 46 46 45 45 45 45 45 44 43 43 41 39 39 40 41 42 41 41 41 41 41 41 42 42 42 42 43 43 44 45 46 47 47 48 49
40 40 40 40 39 40 39 38 37 37 37 36 36 37 37 37 39 38 37 37 37 38 38 37 38 40 42 42 44 44 45 44 45 47 48 48 48 47 47 46 45 45 45 45 45 44 45 44 44 44 44 44 44 44 43 43 42 42 41 40 38 37 37 38 39 38 38 39 39 39 39 40 41 41 41 42 42 43 44 45 46 47 48 49 50